User: anonymous   Login
Location: Bamobli
(6.6379°N, 10.9396°W)
Time: 01:45:00
(UTC+00:00)
Language:

Envisat - Orbit

View from above orbital plane
View from above orbital plane
View from above satellite
View from above satellite

Ground track
Ground track

The orbit data is extracted from the following two-line orbital elements,

1 27386U 02009A   21101.74144252  .00000022  00000-0  20627-4 0  9996
2 27386  98.1477  99.2108 0001384  88.3662  84.9352 14.38020430  1481
Epoch (UTC): 11 April 2021 17:47:40
Eccentricity: 0.0001384
inclination: 98.1477°
perigee height: 764 km
apogee height: 766 km
right ascension of ascending node: 99.2108°
argument of perigee: 88.3662°
revolutions per day: 14.38020430
mean anomaly at epoch: 84.9352°
orbit number at epoch: 148

The dashed part of the orbit path shows where the satellite is in the earth's shadow,  

DLR